Tracking 35280 objects as of 7-Sep-2026
HD Live streaming from Space Station
objects crossing your sky now

METEOR 2-5 DEB


METEOR 2-5 DEB is no longer on orbit


NORAD ID: 28596
Int'l Code: 1979-095G
Launch date: October 31, 1979
Source: Commonwealth of Independent States (former USSR) (CIS)
Launch site: PLESETSK MISSILE AND SPACE COMPLEX (PKMTR)
Decay date: 2023-09-29

Note: This is SATELLITE DEBRIS
Your satellite tracking list
Your tracking list is empty




NASA's NSSDC Master Catalog

Two Line Element Set (TLE):
1 28596U 79095G   22266.03080269  .00012257  00000-0  22823-2 0  9992
2 28596  81.1901 164.0410 0003198 113.3007 246.8531 14.65009523 29223
Source of the keplerian elements: AFSPC